Location: Demmingen
(48.6757°N, 10.4375°E)
Time: 08:50:12
(UTC+00:00)

CZ-2C R/B - Pass Details

Date: 09 August 2024
Orbit: 703 x 903 km, 98.2° (Epoch: 16 September)

Event Time Altitude Azimuth Distance (km) Brightness Sun altitude
Rises 03:21:50 0° 358° (N) 3,158 6.6 -6.8°
Reaches altitude 10° 03:25:31 10° 328° (NNW) 2,266 5.5 -6.3°
Maximum altitude 03:27:23 12° 306° (NW) 2,140 5.1 -6.1°
Drops below altitude 10° 03:29:16 10° 284° (WNW) 2,303 5.1 -5.8°
Enters shadow 03:31:45 - 263° (W) 2,869 5.4 -5.4°
